[[{"header":{"parameterUnit":"m.s-1","parameterCategory":1,"la1":30.2991,"la2":30.254,"lo1":-89.0895,"lo2":-89.0444,"dy":0.0017,"dx":0.0017,"nx":28,"ny":28,"refTime":"2023-07-26T03:00:00:Z","depth":0,"parameterNumber":2,"parameterNumberName":"U-component_of_WINDS"},"data":[0,0,0,0,0,0,0,0,0,0,0,0,0,0,0,0,0,0,0,0,0,0,0,0,0,0,0,0,0,0,0,0,0,0,0,0,0,0,0,0,0,0,0,0,0,0,0,0,0,0,0,0,0,0,0,0,0,0,1.4877,1.4878,0,1.5003,1.5005,1.5006,1.5043,1.5043,1.5042,1.5041,1.5171,1.5175,1.5179,0,0,0,0,0,0,0,0,0,0,0,0,0,1.4666,1.4669,1.4876,1.4878,1.488,1.5003,1.5005,1.5006,1.5043,1.5043,1.5042,1.5041,1.517,1.5174,1.5179,0,0,0,0,0,0,0,0,0,0,0,0,0,1.4771,1.467,1.4876,1.4913,1.4918,1.5003,1.5005,1.5007,1.5044,1.5043,1.5042,1.5041,1.5168,1.5174,1.518,1.5237,0,0,1.5199,1.5201,0,0,0,0,0,0,0,0,1.4765,1.4779,1.4906,1.4911,1.4916,1.5007,1.4978,1.5084,1.5044,1.4996,1.5041,1.504,1.5117,1.5127,1.5153,1.5244,1.5249,1.5199,1.5203,1.5205,1.5207,0,0,0,0,0,0,0,1.4758,1.4774,1.4927,1.4908,1.4914,1.4923,1.4937,1.4998,1.506,1.5,1.5003,1.5017,1.5119,1.5147,1.5156,1.5251,1.5199,1.5204,1.5208,1.521,1.5393,1.5394,0,0,0,0,0,0,1.4744,1.4767,1.4923,1.493,1.4837,1.4927,1.4943,1.4978,1.506,1.5071,1.5018,1.5019,1.5137,1.5149,1.5161,1.5233,1.5205,1.5211,1.5215,1.5392,1.5394,1.5395,0,0,0,0,0,0,1.474,1.4758,1.4918,1.485,1.4871,1.4932,1.4972,1.4981,1.5009,1.5074,1.5085,1.5035,1.5137,1.5153,1.5218,1.5238,1.5214,1.5219,1.5391,1.5393,1.5394,1.5377,0,0,0,0,0,0,1.4733,1.4756,1.4779,1.485,1.4874,1.4972,1.4973,1.4985,1.502,1.5022,1.5092,1.5103,1.5137,1.5209,1.5224,1.5246,1.5224,1.5389,1.5392,1.5394,1.5376,1.5378,1.5379,0,0,0,0,0,1.4726,1.4769,1.478,1.4798,1.4904,1.4973,1.4987,1.5026,1.5021,1.5044,1.5085,1.5101,1.5233,1.5215,1.5233,1.5256,1.5388,1.5391,1.5393,1.5375,1.5377,1.5379,0,0,0,0,0,0,1.4699,1.4779,1.4792,1.486,1.4909,1.498,1.501,1.5027,1.5079,1.5079,1.5124,1.514,1.5202,1.5236,1.5214,1.5316,1.5311,1.5317,1.5291,1.5294,1.5296,1.5286,1.5229,0,0,0,0,0,1.4701,1.4751,1.4818,1.4871,1.4896,1.4948,1.498,1.5005,1.5059,1.508,1.5126,1.5177,1.523,1.5264,1.5316,1.5381,1.5396,1.5406,1.5408,1.5409,1.5414,1.5449,1.5454,1.5404,1.5404,1.5404,0,0,1.4705,1.4755,1.4784,1.4867,1.4909,1.4958,1.4966,1.5019,1.5056,1.5088,1.5152,1.5188,1.5248,1.5312,1.5343,1.5343,1.5431,1.5413,1.5413,1.5417,1.5452,1.5457,1.5461,1.5406,1.5405,1.5405,0,0,1.4739,1.4782,1.483,1.4872,1.4934,1.4969,1.498,1.5048,1.5073,1.5138,1.5162,1.5207,1.5298,1.5339,1.5372,1.542,1.5436,1.5436,1.5445,1.5479,1.5483,1.5486,1.5502,1.5507,1.544,1.544,1.544,0,1.4736,1.4813,1.4853,1.4905,1.494,1.4971,1.5019,1.5057,1.5134,1.5157,1.5156,1.5269,1.5312,1.5386,1.5397,1.5424,1.5437,1.5427,1.5479,1.5483,1.5487,1.5502,1.5508,1.544,1.544,1.544,1.544,0,1.4806,1.4859,1.489,1.4963,1.5002,1.5051,1.5099,1.5133,1.5155,1.5189,1.5254,1.5307,1.5369,1.5389,1.5411,1.5466,1.5464,1.547,1.5466,1.549,1.5506,1.5512,1.5439,1.5439,1.5439,1.5439,0,0,1.4826,1.492,1.493,1.4963,1.5034,1.5075,1.5126,1.5187,1.5215,1.5267,1.531,1.5385,1.5391,1.5428,1.5455,1.5485,1.5518,1.5488,1.549,1.549,1.558,1.5574,1.5581,1.5529,1.553,1.5531,1.5575,0,1.4868,1.496,1.4997,1.5071,1.5119,1.5149,1.5193,1.5241,1.5274,1.532,1.5357,1.5409,1.5414,1.5436,1.5467,1.5507,1.5536,1.5505,1.5569,1.5571,1.5552,1.5589,1.5583,1.5622,1.5581,1.5582,1.5583,0,1.4929,1.498,1.5058,1.5122,1.5144,1.5183,1.5241,1.5285,1.5339,1.5362,1.5402,1.5427,1.5481,1.5474,1.5548,1.5525,1.5554,1.5578,1.558,1.5587,1.5578,1.5596,1.5635,1.564,1.5593,1.5592,1.5592,0,1.4934,1.5022,1.5081,1.5108,1.5184,1.5211,1.5243,1.5297,1.5331,1.5382,1.5404,1.5461,1.5492,1.5535,1.5574,1.5566,1.5644,1.5641,1.5663,1.5662,1.5678,1.5676,1.5721,1.5698,1.5698,1.5698,1.5697,0,1.4975,1.5022,1.5084,1.5119,1.5172,1.5214,1.5265,1.53,1.5348,1.539,1.542,1.5459,1.5509,1.5554,1.5586,1.5641,1.5655,1.5674,1.5682,1.5671,1.5668,1.569,1.5688,1.5699,1.5699,1.5699,1.5698,0,1.499,1.5033,1.5098,1.5165,1.5182,1.5218,1.5275,1.5311,1.5345,1.5398,1.5413,1.5468,1.5523,1.5566,1.5638,1.5659,1.5717,1.5726,1.5699,1.5702,1.5722,1.5719,1.5782,1.5792,1.5762,1.5762,1.5762,0,1.5013,1.505,1.512,1.515,1.5182,1.5231,1.5266,1.5309,1.5343,1.5407,1.5435,1.5492,1.554,1.5626,1.5672,1.5727,1.5737,1.5755,1.5745,1.5733,1.5735,1.5732,1.5736,1.5755,1.5755,1.5756,1.5756,0,1.5049,1.5069,1.5117,1.5173,1.5214,1.526,1.5307,1.533,1.5381,1.5418,1.5475,1.5511,1.5584,1.564,1.57,1.5733,1.5753,1.5758,1.5766,1.5755,1.5737,1.5746,1.57,1.5757,1.5756,1.5756,1.5756,1.5756,1.5069,1.5102,1.5156,1.5208,1.5248,1.5291,1.5327,1.5366,1.5413,1.5476,1.5498,1.5555,1.5608,1.569,1.5724,1.5769,1.5771,1.5783,1.5785,1.5787,1.5785,1.5731,1.5781,1.5781,1.5781,1.5781,1.5781,0,1.5105,1.5141,1.5189,1.5253,1.5295,1.5309,1.5361,1.5395,1.5445,1.5493,1.5539,1.5603,1.5657,1.5707,1.5763,1.579,1.58,1.5803,1.5801,1.5808,1.5782,1.5769,1.5794,1.5794,1.5793,1.5793,1.5793,1.5793,1.5129,1.5186,1.5211,1.5287,1.5323,1.5379,1.5408,1.5447,1.5485,1.5555,1.56,1.5632,1.568,1.574,1.579,1.5803,1.5822,1.5822,1.5838,1.5812,1.581,1.5808,1.5796,1.5826,1.5826,1.586,1.586,1.5861]},{"header":{"parameterUnit":"m.s-1","parameterCategory":1,"la1":30.2991,"la2":30.254,"lo1":-89.0895,"lo2":-89.0444,"dy":0.0017,"dx":0.0017,"nx":28,"ny":28,"refTime":"2023-07-26T03:00:00:Z","depth":0,"parameterNumber":3,"parameterNumberName":"V-component_of_WINDS"},"data":[0,0,0,0,0,0,0,0,0,0,0,0,0,0,0,0,0,0,0,0,0,0,0,0,0,0,0,0,0,0,0,0,0,0,0,0,0,0,0,0,0,0,0,0,0,0,0,0,0,0,0,0,0,0,0,0,0,0,1.2712,1.2711,0,1.2602,1.2601,1.2599,1.2522,1.2521,1.252,1.252,1.2403,1.24,1.2398,0,0,0,0,0,0,0,0,0,0,0,0,0,1.2849,1.2847,1.2712,1.2711,1.2709,1.2602,1.2601,1.2599,1.2522,1.2521,1.252,1.252,1.2404,1.24,1.2397,0,0,0,0,0,0,0,0,0,0,0,0,0,1.2769,1.2846,1.2712,1.2658,1.2652,1.2602,1.2601,1.2599,1.2522,1.2521,1.252,1.2519,1.2405,1.2401,1.2397,1.2391,0,0,1.2385,1.2384,0,0,0,0,0,0,0,0,1.2774,1.2764,1.2667,1.2661,1.2655,1.2575,1.2606,1.2529,1.2522,1.2571,1.252,1.2519,1.246,1.2452,1.2433,1.2386,1.2381,1.2385,1.2383,1.2381,1.238,0,0,0,0,0,0,0,1.278,1.2769,1.2668,1.2666,1.2658,1.2637,1.2625,1.2591,1.2522,1.2567,1.2561,1.2549,1.2457,1.2437,1.243,1.2379,1.2385,1.2382,1.2379,1.2378,1.2319,1.232,0,0,0,0,0,0,1.2794,1.2774,1.2672,1.2665,1.2714,1.2635,1.2622,1.2601,1.2522,1.2509,1.255,1.2546,1.2444,1.2434,1.2425,1.2412,1.2381,1.2377,1.2375,1.2319,1.232,1.232,0,0,0,0,0,0,1.2798,1.2786,1.2676,1.2718,1.2702,1.2634,1.2612,1.26,1.258,1.251,1.2496,1.2543,1.2443,1.2431,1.24,1.2407,1.2376,1.2372,1.2318,1.2319,1.232,1.2387,0,0,0,0,0,0,1.2802,1.2788,1.2787,1.2718,1.27,1.2655,1.2612,1.2598,1.2574,1.2567,1.2499,1.2487,1.2441,1.2406,1.2396,1.2401,1.2369,1.2317,1.2318,1.232,1.2384,1.239,1.2396,0,0,0,0,0,1.2807,1.2809,1.2787,1.2775,1.2698,1.2656,1.2645,1.2593,1.2575,1.2572,1.2526,1.2489,1.2408,1.2404,1.2392,1.2396,1.2316,1.2318,1.2319,1.2381,1.2389,1.2396,0,0,0,0,0,0,1.2879,1.2799,1.2774,1.2754,1.2712,1.2643,1.2637,1.2604,1.2565,1.2561,1.2496,1.2482,1.2457,1.2423,1.242,1.2385,1.2357,1.2357,1.2408,1.2415,1.2421,1.2429,1.2366,0,0,0,0,0,1.2892,1.2867,1.2798,1.2787,1.2768,1.2707,1.2686,1.265,1.2603,1.2585,1.2537,1.2492,1.2456,1.2434,1.2397,1.2379,1.2361,1.2375,1.2381,1.2386,1.2386,1.2372,1.2377,1.2326,1.2326,1.2326,0,0,1.292,1.2873,1.2861,1.28,1.2764,1.2737,1.2692,1.2666,1.2644,1.258,1.2549,1.2512,1.2457,1.2433,1.2419,1.2403,1.2396,1.2388,1.2393,1.239,1.2374,1.2379,1.2383,1.2327,1.2327,1.2327,0,0,1.2956,1.2919,1.2906,1.287,1.2815,1.2774,1.2771,1.2706,1.268,1.2647,1.2598,1.2571,1.2511,1.2473,1.2446,1.2467,1.2431,1.2457,1.2487,1.2474,1.2478,1.2481,1.2487,1.249,1.2457,1.2457,1.2457,0,1.2997,1.2956,1.2902,1.2879,1.2852,1.2795,1.2779,1.2746,1.2682,1.2664,1.2648,1.257,1.2529,1.2494,1.2499,1.248,1.2472,1.2464,1.2482,1.2485,1.2487,1.2492,1.2494,1.246,1.246,1.246,1.2459,0,1.3008,1.298,1.2975,1.2916,1.2889,1.2869,1.2811,1.279,1.2755,1.2716,1.2682,1.2631,1.2582,1.2571,1.2537,1.253,1.2522,1.2495,1.2465,1.2496,1.25,1.2501,1.2465,1.2464,1.2463,1.2462,0,0,1.3087,1.2997,1.2996,1.2968,1.2903,1.2879,1.2856,1.2809,1.2792,1.2749,1.2726,1.2676,1.265,1.262,1.2581,1.2569,1.2587,1.2543,1.2541,1.2552,1.2574,1.2594,1.2597,1.2563,1.2563,1.2563,1.2578,0,1.3112,1.3069,1.302,1.2993,1.2965,1.2909,1.2888,1.2845,1.2807,1.2776,1.2733,1.2698,1.2667,1.2648,1.2635,1.2588,1.259,1.2586,1.2539,1.2538,1.2554,1.2599,1.2621,1.2638,1.2579,1.2579,1.258,0,1.3136,1.3097,1.3069,1.3004,1.2991,1.2974,1.2926,1.2898,1.2847,1.2819,1.2785,1.2743,1.2713,1.2688,1.2645,1.2643,1.2621,1.2595,1.2594,1.2587,1.256,1.2592,1.2642,1.2644,1.2581,1.2581,1.2581,0,1.3195,1.3135,1.311,1.3087,1.3012,1.3001,1.2969,1.2917,1.2892,1.2849,1.2831,1.2786,1.2761,1.2725,1.2671,1.2658,1.2633,1.2604,1.2608,1.2609,1.2605,1.2606,1.2651,1.2592,1.2592,1.2592,1.2592,0,1.3228,1.3213,1.3135,1.3119,1.3099,1.3041,1.3022,1.2984,1.2938,1.2912,1.2861,1.2837,1.2768,1.2736,1.2693,1.2663,1.2652,1.2627,1.2616,1.2632,1.2635,1.2616,1.2613,1.2593,1.2592,1.2592,1.2592,0,1.3291,1.3238,1.3206,1.3138,1.312,1.3108,1.3049,1.303,1.2989,1.2957,1.2946,1.288,1.2839,1.2782,1.2723,1.2694,1.267,1.2652,1.2688,1.2681,1.2687,1.2687,1.2721,1.2722,1.2665,1.2665,1.2666,0,1.3315,1.3301,1.3232,1.3212,1.3182,1.315,1.3123,1.3065,1.3039,1.2979,1.2967,1.2923,1.2884,1.2821,1.2767,1.2721,1.2701,1.2716,1.2694,1.2709,1.27,1.2701,1.2698,1.2722,1.2722,1.2723,1.2724,0,1.3363,1.3338,1.3303,1.3259,1.3229,1.3191,1.3151,1.3136,1.3069,1.3042,1.3001,1.2971,1.2911,1.2866,1.2813,1.2778,1.2739,1.2731,1.2729,1.2745,1.2765,1.2753,1.2701,1.2731,1.273,1.2729,1.2729,1.2729,1.3406,1.3391,1.3339,1.3302,1.3265,1.3228,1.3207,1.3163,1.3128,1.3075,1.3042,1.3002,1.2948,1.2873,1.2839,1.2805,1.279,1.2787,1.2787,1.2787,1.2791,1.2772,1.2795,1.2795,1.2795,1.2795,1.2794,0,1.345,1.3414,1.338,1.3326,1.3295,1.3263,1.3216,1.3192,1.3158,1.3112,1.3075,1.3026,1.2982,1.2925,1.2876,1.286,1.2841,1.2849,1.2849,1.2841,1.2809,1.2815,1.2865,1.2865,1.2865,1.2865,1.2865,1.2865,1.347,1.3442,1.341,1.3363,1.3326,1.3287,1.3263,1.3227,1.3191,1.3139,1.3103,1.3066,1.3014,1.2962,1.2919,1.2903,1.2887,1.2901,1.2879,1.285,1.2844,1.2838,1.2843,1.2898,1.2898,1.2914,1.2914,1.2914]}]]